Simultaneous Nadir Overpasses (SNOs) Predictions

Prediction of SNOs between LANDSAT-8 and NOAA-19 Satellite Orbit:

Table of predicted SNOs for the next 14.0 days since TLE Epoch: 11/27/2015
Index Date (LANDSAT-8) Time (LANDSAT-8) Lat,Lon (LANDSAT-8) SZA (LANDSAT-8 ) Date (NOAA-19) Time (NOAA-19) Lat,Lon (NOAA-19) SZA (NOAA-19 ) Distance(km) Time Diff (sec)
1 11/28/2015 17:21:35 73.87, -77.53 95.18 11/28/2015 17:21:11 73.88, -77.51 95.20 1.74 24
2 11/28/2015 18:11:04 -73.79, 89.94 84.89 11/28/2015 18:12:10 -73.78, 90.00 84.90 2.53 66
3 11/30/2015 22:05:42 74.40,-147.37 96.11 11/30/2015 22:04:35 74.46,-149.79 96.11 72.41 67
4 11/30/2015 22:55:20 -73.86, 19.03 84.46 11/30/2015 22:55:24 -73.84, 19.08 84.48 3.16 4
5 12/03/2015 03:39:36 -73.93, -51.90 84.06 12/03/2015 03:38:38 -73.91, -51.86 84.08 2.37 58
6 12/03/2015 04:29:03 73.84, 115.56 95.86 12/03/2015 04:29:37 73.86, 115.51 95.89 2.59 34
7 12/05/2015 09:13:19 73.90, 44.60 96.21 12/05/2015 09:12:50 73.92, 44.61 96.23 2.71 29
8 12/05/2015 10:02:47 -73.83,-147.91 83.86 12/05/2015 10:03:50 -73.82,-147.91 83.86 0.60 63
9 12/07/2015 13:57:21 74.61, -24.79 97.23 12/07/2015 13:56:16 74.65, -28.12 97.20 98.34 65
10 12/07/2015 14:47:03 -73.88, 141.12 83.55 12/07/2015 14:47:04 -73.91, 141.11 83.52 3.67 1
11 12/09/2015 19:31:18 -73.97, 70.26 83.23 12/09/2015 19:30:17 -73.95, 70.24 83.25 1.54 61
12 12/09/2015 20:20:45 73.88,-122.30 96.68 12/09/2015 20:21:14 73.89,-122.34 96.70 1.92 29




NCC Satellite Simultaneous Nadir Overpasses (SNOs) Prediction Service
